Weather History for LTCE - October, 2011

Change the Weather History Date:

Wednesday, October 26, 2011

  Actual Average Record
Temperature  
Mean Temperature 39 °F -  
Max Temperature 52 °F 46 °F - ()
Min Temperature 26 °F 28 °F - ()
Degree Days  
Heating Degree Days 26    
Moisture  
Dew Point 32 °F    
Average Humidity 78    
Maximum Humidity 100    
Minimum Humidity 47    
Precipitation  
Precipitation 0.00 in 0.05 in - ()
Sea Level Pressure  
Sea Level Pressure 30.05 in    
Wind  
Wind Speed 5 mph ()    
Max Wind Speed 17 mph    
Max Gust Speed -    
Visibility 6.6 miles    
Events      
T = Trace of Precipitation, MM = Missing Value Source: Averaged Metar Reports

Daily Weather History Graph

Daily Weather History Graph

Search for Another Location

Airport or City:

Trip Planner

Search our weather history database for the weather conditions in past years. The results will help you decide how hot, cold, wet, or windy it might be!

Date:

Astronomy

Oct. 26, 2011 Rise Set
Actual Time 6:36 AM EEST 5:21 PM EEST
Civil Twilight 6:09 AM EEST 5:48 PM EEST
Nautical Twilight 5:37 AM EEST 6:20 PM EEST
Astronomical Twilight 5:06 AM EEST 6:51 PM EEST
Moon 5:57 AM EEST (10/26) 4:48 PM EEST (10/26)
Length of Visible Light 11h 39m
Length of Day
10h 44m
Waning Crescent, 0% of the Moon is Illuminated
Oct 26
Waning Crescent
Oct 26
New
Nov 2
First Quarter
Nov 10
Full
Nov 18
Last Quarter

Hourly Weather History & Observations

Time (EEST) Temp. Windchill Dew Point Humidity Pressure Visibility Wind Dir Wind Speed Gust Speed Precip Events Conditions
12:20 AM 41.0 °F - 37.4 °F 87% 30.09 in 6.2 mi Variable 2.3 mph - N/A   Mostly Cloudy
12:50 AM 39.2 °F - 37.4 °F 93% 30.09 in 6.2 mi Variable 2.3 mph - N/A   Scattered Clouds
1:20 AM 39.2 °F - 35.6 °F 87% 30.09 in - Calm Calm - N/A   Clear
1:50 AM 37.4 °F - 35.6 °F 93% 30.09 in - Calm Calm - N/A   Clear
2:20 AM 37.4 °F 32.8 °F 35.6 °F 93% 30.09 in - West 5.8 mph - N/A   Clear
2:50 AM 37.4 °F 34.9 °F 35.6 °F 93% 30.09 in - WSW 3.5 mph - N/A   Clear
3:00 AM 37 °F - 35 °F 91%  in 6 mi WSW 3.5 mph - -   Partly Cloudy
3:20 AM 37.4 °F - 35.6 °F 93% 30.06 in - Calm Calm - N/A   Clear
3:50 AM 35.6 °F 31.7 °F 33.8 °F 93% 30.06 in - NW 4.6 mph - N/A   Clear
4:20 AM 35.6 °F - 33.8 °F 93% 30.06 in 6.2 mi Variable 1.2 mph - N/A   Scattered Clouds
4:50 AM 35.6 °F 32.8 °F 33.8 °F 93% 30.06 in 6.2 mi WSW 3.5 mph - N/A   Scattered Clouds
5:20 AM 33.8 °F 30.8 °F 32.0 °F 93% 30.06 in 6.2 mi SSE 3.5 mph - N/A   Partly Cloudy
5:50 AM 33.8 °F - 32.0 °F 93% 30.06 in 6.2 mi NNE 2.3 mph - N/A   Scattered Clouds
6:20 AM 33.8 °F - 32.0 °F 93% 30.06 in 6.2 mi Calm Calm - N/A   Scattered Clouds
6:50 AM 32.0 °F - 32.0 °F 100% 30.06 in 6.2 mi SE 1.2 mph - N/A   Scattered Clouds
7:20 AM 32.0 °F - 32.0 °F 100% 30.09 in 6.2 mi Calm Calm - N/A   Scattered Clouds
7:50 AM 35.6 °F - 35.6 °F 100% 30.09 in 6.2 mi Calm Calm - N/A   Scattered Clouds
8:20 AM 39.2 °F - 35.6 °F 87% 30.09 in 6.2 mi Calm Calm - N/A   Scattered Clouds
8:50 AM 37.4 °F - 32.0 °F 81% 30.09 in 6.2 mi Variable 1.2 mph - N/A   Scattered Clouds
9:00 AM 36 °F - 33 °F 85%  in 12 mi SSW 1.2 mph - -   Partly Cloudy
9:20 AM 37.4 °F - 32.0 °F 81% 30.09 in 6.2 mi Variable 1.2 mph - N/A   Scattered Clouds
9:50 AM 33.8 °F - 26.6 °F 75% 30.09 in 6.2 mi Variable 1.2 mph - N/A   Scattered Clouds
10:20 AM 32.0 °F 27.5 °F 26.6 °F 80% 30.06 in 6.2 mi WNW 4.6 mph - N/A   Scattered Clouds
10:50 AM 42.8 °F 41.1 °F 32.0 °F 66% 30.09 in 6.2 mi WSW 3.5 mph - N/A   Scattered Clouds
11:20 AM 42.8 °F - 32.0 °F 66% 30.06 in 6.2 mi Variable 1.2 mph - N/A   Scattered Clouds
11:50 AM 48.2 °F - 33.8 °F 58% 30.06 in 6.2 mi Variable 3.5 mph - N/A   Scattered Clouds
12:20 PM 50.0 °F - 32.0 °F 50% 30.04 in 6.2 mi Variable 2.3 mph - N/A   Scattered Clouds
12:50 PM 50.0 °F - 33.8 °F 54% 30.04 in 6.2 mi East 3.5 mph - N/A   Scattered Clouds
1:20 PM 50.0 °F - 32.0 °F 50% 30.01 in 6.2 mi Variable 2.3 mph - N/A   Scattered Clouds
1:50 PM 50.0 °F - 32.0 °F 50% 30.01 in 6.2 mi NE 4.6 mph - N/A   Scattered Clouds
2:20 PM 51.8 °F - 32.0 °F 47% 30.01 in 6.2 mi Variable 2.3 mph - N/A   Scattered Clouds
2:50 PM 48.2 °F - 35.6 °F 62% 30.01 in 6.2 mi NE 12.7 mph - N/A   Scattered Clouds
3:00 PM 48 °F - 35 °F 49%  in 12 mi NE 12.7 mph - -   Partly Cloudy
3:20 PM 46.4 °F 41.1 °F 33.8 °F 62% 30.01 in 6.2 mi ENE 11.5 mph - N/A   Scattered Clouds
3:50 PM 44.6 °F 38.8 °F 33.8 °F 66% 30.01 in 6.2 mi ENE 11.5 mph - N/A   Scattered Clouds
4:20 PM 44.6 °F 37.2 °F 35.6 °F 71% 30.01 in 6.2 mi NE 17.3 mph - N/A   Scattered Clouds
4:50 PM 41.0 °F 33.5 °F 33.8 °F 76% 30.01 in 6.2 mi NE 13.8 mph - N/A   Mostly Cloudy
5:20 PM 39.2 °F 31.6 °F 32.0 °F 75% 30.01 in 6.2 mi NE 12.7 mph - N/A   Mostly Cloudy
5:50 PM 39.2 °F 31.6 °F 33.8 °F 81% 30.01 in 6.2 mi NE 12.7 mph - N/A   Mostly Cloudy
6:20 PM 41.0 °F 33.5 °F 33.8 °F 76% 30.01 in 6.2 mi ENE 13.8 mph - N/A   Mostly Cloudy
6:50 PM 28.4 °F 17.5 °F 21.2 °F 74% 30.04 in 6.2 mi ENE 13.8 mph - N/A   Mostly Cloudy
7:20 PM 30.2 °F 19.3 °F 23.0 °F 75% 30.04 in 6.2 mi East 15.0 mph - N/A   Mostly Cloudy
7:50 PM 26.6 °F 14.3 °F 21.2 °F 80% 30.04 in 6.2 mi ENE 16.1 mph - N/A   Mostly Cloudy
8:20 PM 32.0 °F 21.6 °F 24.8 °F 75% 30.04 in 6.2 mi ENE 15.0 mph - N/A   Mostly Cloudy
8:50 PM 37.4 °F 28.9 °F 32.0 °F 81% 30.04 in 6.2 mi ENE 13.8 mph - N/A   Mostly Cloudy
9:00 PM 36 °F - 32 °F 80%  in 12 mi ENE 13.8 mph - -   Partly Cloudy
9:20 PM 37.4 °F 28.5 °F 30.2 °F 75% 30.04 in 6.2 mi ENE 15.0 mph - N/A   Mostly Cloudy
9:50 PM 35.6 °F 26.6 °F 30.2 °F 81% 30.04 in 6.2 mi ENE 13.8 mph - N/A   Mostly Cloudy
10:20 PM 37.4 °F 28.9 °F 30.2 °F 75% 30.04 in 6.2 mi ENE 13.8 mph - N/A   Mostly Cloudy
10:50 PM 37.4 °F 28.9 °F 30.2 °F 75% 30.04 in 6.2 mi ENE 13.8 mph - N/A   Mostly Cloudy
11:20 PM 35.6 °F 26.6 °F 28.4 °F 75% 30.04 in 6.2 mi ENE 13.8 mph - N/A   Mostly Cloudy
11:50 PM 37.4 °F 29.8 °F 30.2 °F 75% 30.04 in 6.2 mi ENE 11.5 mph - N/A   Mostly Cloudy